Regional Weather Roundup
Issued by NWS

Home | Current Version | Previous Version | Graphics & Text | Print | Product List | Glossary On
Versions: 1 2 3 4 5 6 7 8 9 10 11 12 13 14 15 16 17 18 19 20 21 22 23 24 25 26 27 28 29 30 31 32 33 34 35 36 37 38 39 40 41 42 43 44 45 46 47 48 49 50
000
ASUS43 KIND 221459
RWRIN

WEATHER ROUNDUP FOR INDIANA
NATIONAL WEATHER SERVICE INDIANAPOLIS IN
1100 AM EDT FRI JUL 22 2016

NOTE: "FAIR" INDICATES FEW OR NO CLOUDS BELOW 12,000 FEET WITH NO
SIGNIFICANT WEATHER AND/OR OBSTRUCTIONS TO VISIBILITY.

* - STATION DOES NOT REPORT WEATHER SUCH AS PRECIPITATION OR FOG.

+ - STATION NOT QUALITY CONTROLLED BY THE NATIONAL WEATHER SERVICE.
    USE DATA WITH CAUTION...ESPECIALLY DEWPOINT AND RELATIVE
    HUMIDITY OBSERVATIONS.

INZ001>003-010>013-019-020-221600-
NORTHWEST INDIANA

CITY           SKY/WX    TMP DP  RH WIND       PRES   REMARKS
GARY /AIRPORT/ PTSUNNY   81  77  89 W8        30.04F
KNOX *+        CLOUDY    79  59  50 NW9       30.03F
MONTICELLO +   MOSUNNY   79  70  72 W7        30.04S

$$

LMZ046-743>745-221600-
SOUTHERN LAKE MICHIGAN

STATION/POSITION TIME  TEMP    WIND        PRES    WAVE
                       AIR SEA DIR/SP/G            HT
                 (UTC) (F)     (DEG/KT/KT) (MB)    (FT)
BURNS HARBOR     1405   75     240/  5/  7 1017.6R
MICHIGAN CITY    1400   74     230/ 10/ 11   N/A
5NW MICH CITY    1400   74 74  250/  6/  6   N/A     1

$$

INZ004-005-014>016-021>024-221600-
NORTH CENTRAL INDIANA

CITY           SKY/WX    TMP DP  RH WIND       PRES   REMARKS
ELKHART        MOSUNNY   82  73  74 W9        30.03S
GOSHEN         PTSUNNY   83  66  56 W5        30.02F
SOUTH BEND     MOSUNNY   80  69  69 NW9       30.03S

$$

INZ006>009-017-018-025>027-221600-
NORTHEAST INDIANA

CITY           SKY/WX    TMP DP  RH WIND       PRES   REMARKS
ANGOLA *+        N/A     81  72  74 W7        30.02F
FORT WAYNE     MOSUNNY   84  72  67 W5        30.01F

$$

INZ028-029-035-036-043>045-051>053-221600-
WEST CENTRAL INDIANA

CITY           SKY/WX    TMP DP  RH WIND       PRES   REMARKS
CRAWFORDSVL +  CLOUDY    77  74  91 SW3       30.04S
LAFAYETTE      CLOUDY    79  72  79 SW5       30.04S
TERRE HAUTE    CLOUDY    78  72  81 SE5       30.04F

$$

INZ030>032-037>040-046>048-054>057-064-065-221600-
CENTRAL INDIANA

CITY           SKY/WX    TMP DP  RH WIND       PRES   REMARKS
ANDERSON       SUNNY     81  73  78 CALM      30.04S
COLUMBUS       CLOUDY    77  75  94 CALM      30.05F
INDIANAPOLIS   CLOUDY    79  72  79 W8        30.04F
-EAGLE CREEK   CLOUDY    79  72  79 S6        30.02F
KOKOMO *+      PTSUNNY   84  70  61 W10       30.03S
SHELBYVILLE    CLOUDY    81  73  76 W7        30.05R

$$

INZ033-034-041-042-049-050-058-059-221600-
EAST CENTRAL INDIANA

CITY           SKY/WX    TMP DP  RH WIND       PRES   REMARKS
MUNCIE         CLOUDY    82  74  76 CALM      30.04S

$$

INZ060-061-067>069-081>083-085>088-221600-
SOUTHWEST INDIANA

CITY           SKY/WX    TMP DP  RH WIND       PRES   REMARKS
EVANSVILLE     LGT RAIN  75  72  90 SW12      30.06R
HUNTINGBURG *+ PTSUNNY   75  72  88 S12       30.04R

$$

INZ062-063-066-070>080-084-089>092-221600-
SOUTH CENTRAL AND SOUTHEAST INDIANA

CITY           SKY/WX    TMP DP  RH WIND       PRES   REMARKS
BLOOMINGTON    CLOUDY    77  71  82 W5        30.06S
MADISON *+     CLOUDY    81  72  74 NW3       30.08S

$$





USA.gov is the U.S. government's official web portal to all federal, state and local government web resources and services.